Date,TemperatureHighF,TemperatureAvgF,TemperatureLowF,DewpointHighF,DewpointAvgF,DewpointLowF,HumidityHigh,HumidityAvg,HumidityLow,PressureMaxIn,PressureMinIn,WindSpeedMaxMPH,WindSpeedAvgMPH,GustSpeedMaxMPH,PrecipitationSumIn
2013-4-1,58.8,47.5,33.6,47.8,41.2,20.2,97,80,51,29.82,29.55,9,4,18,0.13
2013-4-2,44.2,34.2,22.8,22.5,16.2,9.0,84,50,26,29.99,29.82,10,3,20,0.00
2013-4-3,46.3,35.1,23.0,19.1,15.6,11.8,76,47,27,30.21,29.98,8,3,17,0.00
2013-4-4,51.6,38.5,23.8,33.5,22.9,14.8,84,56,27,30.35,30.10,8,3,14,0.00
2013-4-5,62.0,46.8,37.9,41.6,30.9,16.8,84,59,22,30.10,29.63,7,3,15,0.00
2013-4-6,50.6,39.6,27.7,27.1,17.5,6.2,77,44,17,30.33,29.89,7,3,19,0.00
2013-4-7,52.4,40.3,22.6,43.6,32.5,19.8,91,75,41,30.34,30.05,11,4,24,0.00
2013-4-8,69.8,52.9,39.6,47.9,42.4,38.2,97,72,32,30.09,29.98,6,2,13,0.00
2013-4-9,77.1,59.0,46.2,56.8,47.0,42.9,97,70,31,30.08,29.84,7,2,15,0.06
2013-4-10,69.6,52.5,46.0,54.5,47.2,43.5,95,83,58,30.06,29.84,7,2,12,0.30
2013-4-11,55.5,49.2,45.3,49.1,45.0,35.7,97,86,69,30.11,29.81,7,2,12,0.02
2013-4-12,45.4,41.8,39.1,38.8,36.1,30.5,95,81,61,30.12,29.72,9,5,18,0.61
2013-4-13,56.9,45.0,37.9,41.8,37.8,35.4,94,78,47,29.94,29.68,9,3,18,0.01
2013-4-14,55.4,45.1,32.7,43.1,34.7,26.8,96,70,40,30.23,29.94,6,2,14,0.00
2013-4-15,56.2,42.2,28.7,39.3,33.1,26.1,95,73,45,30.41,30.22,6,1,10,0.00
2013-4-16,59.7,47.4,30.0,50.0,42.4,28.9,97,84,64,30.42,30.14,10,4,19,0.00
2013-4-17,69.8,56.5,38.7,52.7,44.5,36.3,96,68,33,30.32,30.10,7,2,13,0.01
2013-4-18,61.6,48.3,31.3,48.9,38.1,30.3,97,72,38,30.41,30.16,7,2,14,0.00
2013-4-19,67.5,58.8,51.8,62.8,57.3,48.9,98,95,84,30.16,29.71,10,4,18,0.11
2013-4-20,61.3,53.3,42.5,60.7,44.6,30.9,98,75,38,30.23,29.65,11,3,18,0.62
2013-4-21,55.7,42.6,30.6,31.9,26.8,21.7,90,56,30,30.67,30.23,7,3,15,0.00
2013-4-22,54.0,41.9,27.6,38.9,32.4,26.3,96,72,42,30.71,30.55,9,4,17,0.00
2013-4-23,45.1,42.4,40.2,42.9,39.4,33.6,94,89,76,30.55,30.04,10,6,22,0.00
2013-4-24,70.5,52.2,43.0,49.8,44.8,40.4,97,78,44,30.04,29.86,9,5,18,0.00
2013-4-25,65.8,53.4,36.2,51.5,38.6,23.4,97,63,22,30.27,29.89,6,2,16,0.04
2013-4-26,63.7,48.4,29.6,43.9,35.7,27.0,94,66,36,30.41,30.26,6,2,13,0.00
2013-4-27,62.7,47.6,31.5,47.0,39.0,30.5,97,75,46,30.41,30.31,6,2,11,0.00
2013-4-28,66.2,50.0,31.7,44.4,35.6,23.4,96,65,29,30.35,30.25,6,2,12,0.00
2013-4-29,64.2,51.9,40.6,49.0,37.4,21.2,96,64,20,30.28,30.23,7,2,12,0.00
2013-4-30,67.1,52.9,36.4,42.7,33.3,23.3,93,54,20,30.35,30.25,5,2,11,0.00